Meteo Giornale » Osservazioni meteo Repubblica Ceca » Praha-Ruzyne

ore: 18:35 - Osservazioni Meteo Praha-Ruzyne
Lat. 50° 6' N Lon. 14° 15' E Alt. 365 metri s.l.m.

coperto_pioggia Europe/Prague

8 °C

Pioggia Debole

Temp. 24 Ore

6 °C

10 °C

Ovest

11.1 Km/h

Dew point 7 °C

Umidità 93 %

Visibilità  10 Km

Il sole sorge alle ore 07:37

Il sole tramonta alle ore 17:57

Data e Ora Cielo e Fenomeni T °C DP °C Um. % Pres. hPa Vis. km Vento km/h
Oggi h: 18:35 coperto_pioggia Pioggia Debole 8 7 93 1018 10 O 11.1
Oggi h: 18:30 coperto_pioggia Pioggia 8 7 93 1018 6 O 13
Oggi h: 18:26 coperto_pioggia Pioggia 8 7 93 1018 6 O 13
Oggi h: 18:06 coperto_pioggia Pioggia Debole 9 7 87 1018 8 O 13
Oggi h: 18:00 molto_nuvoloso Molto Nuvoloso 9 7 87 1018 10 O 13
Oggi h: 17:43 coperto_pioggia Pioviggine Leggera 8 7 93 1018 10 O 9.3
Oggi h: 17:36 coperto_pioggia Pioviggine 9 7 87 1018 5 O 9.3
Oggi h: 17:30 coperto_pioggia Pioggia Debole 9 7 87 1018 9 O 11.1
Oggi h: 17:00 coperto_pioggia Pioggia Debole 9 6 81 1017 10 O/NO 16.7
Oggi h: 16:56 coperto_pioggia Pioggia Debole 9 6 81 1017 10 O/NO 16.7
Oggi h: 16:30 molto_nuvoloso Molto Nuvoloso 10 6 76 1017 10 NO 16.7
Oggi h: 16:00 coperto_pioggia Pioggia Debole 9 7 87 1017 10 NO 14.8
Oggi h: 15:43 coperto_pioggia Pioggia Debole 10 6 76 1017 10 NO 14.8
Oggi h: 15:30 molto_nuvoloso Molto Nuvoloso 10 6 76 1017 10 O/NO 13
Oggi h: 15:00 molto_nuvoloso Molto Nuvoloso 10 6 76 1016 10 O 14.8
Oggi h: 14:30 molto_nuvoloso Molto Nuvoloso 10 5 71 1016 10 O 18.5
Oggi h: 14:00 molto_nuvoloso Molto Nuvoloso 10 6 76 1016 10 O 22.2
Oggi h: 13:30 molto_nuvoloso Molto Nuvoloso 10 5 71 1016 10 O 20.3
Oggi h: 13:00 molto_nuvoloso Molto Nuvoloso 10 5 71 1016 10 O/NO 20.3
Oggi h: 12:30 molto_nuvoloso Molto Nuvoloso 10 4 66 1016 10 O/NO 22.2
Oggi h: 12:00 molto_nuvoloso Molto Nuvoloso 10 5 71 1016 10 O 22.2
Oggi h: 11:30 molto_nuvoloso Molto Nuvoloso 10 6 76 1016 10 O 22.2
Oggi h: 11:00 molto_nuvoloso Molto Nuvoloso 9 5 75 1016 10 O 20.3
Oggi h: 10:30 molto_nuvoloso Molto Nuvoloso 9 5 75 1016 10 O 20.3
Oggi h: 10:00 molto_nuvoloso Molto Nuvoloso 9 6 81 1015 10 O 20.3
Oggi h: 09:30 molto_nuvoloso Molto Nuvoloso 8 6 87 1015 10 O 22.2
Oggi h: 09:00 molto_nuvoloso Molto Nuvoloso 8 6 87 1015 10 O 16.7
Oggi h: 08:30 molto_nuvoloso Molto Nuvoloso 8 6 87 1015 10 O 20.3
Oggi h: 08:00 molto_nuvoloso Molto Nuvoloso 8 6 87 1015 10 O 16.7
Oggi h: 07:30 molto_nuvoloso Molto Nuvoloso 8 6 87 1015 10 O 16.7
Oggi h: 07:00 coperto Coperto 7 6 93 1014 10 O 16.7
Oggi h: 06:30 coperto Coperto 7 6 93 1014 10 O 16.7
Oggi h: 06:08 coperto Coperto 7 6 93 1014 10 O 13
Oggi h: 06:00 coperto_pioggia Pioggia Debole 7 6 93 1014 10 O 13
Oggi h: 05:55 coperto_pioggia Pioggia Debole 7 6 93 1014 10 O 13
Oggi h: 05:30 molto_nuvoloso Molto Nuvoloso 7 5 87 1014 10 O 14.8
Oggi h: 05:00 coperto Coperto 8 5 81 1014 10 O 16.7
Oggi h: 04:30 coperto Coperto 7 5 87 1014 10 O 16.7
Oggi h: 04:00 coperto Coperto 7 5 87 1014 10 O/SO 14.8
Oggi h: 03:30 molto_nuvoloso Molto Nuvoloso 7 5 87 1014 10 O/SO 14.8
Oggi h: 03:00 molto_nuvoloso Molto Nuvoloso 7 5 87 1013 10 O/SO 16.7
Oggi h: 02:30 molto_nuvoloso Molto Nuvoloso 7 5 87 1014 10 O/SO 16.7
Oggi h: 02:00 molto_nuvoloso Molto Nuvoloso 7 5 87 1014 10 O/SO 18.5
Oggi h: 01:30 molto_nuvoloso Molto Nuvoloso 7 4 81 1014 10 SO 20.3
Oggi h: 01:00 nuvoloso Nuvoloso 6 4 86 1014 10 O/SO 13
Oggi h: 00:30 nuvoloso Nuvoloso 6 4 86 1014 10 O/SO 16.7
Oggi h: 00:00 nuvoloso Nuvoloso 6 4 86 1014 10 O/SO 16.7
Ieri h: 23:30 sereno Sereno 7 4 81 1014 10 O/SO 20.3
Ieri h: 23:00 sereno Sereno 7 4 81 1014 10 SO 16.7
Ieri h: 22:30 sereno Sereno 7 4 81 1014 10 SO 14.8
Ieri h: 22:00 sereno Sereno 7 4 81 1014 10 SO 14.8
Ieri h: 21:30 sereno Sereno 7 4 81 1014 10 S/SO 16.7
Ieri h: 21:00 sereno Sereno 8 4 75 1014 10 SO 14.8
Ieri h: 20:30 sereno Sereno 8 4 75 1014 10 SO 14.8
Ieri h: 20:00 sereno Sereno 8 4 75 1014 10 O/SO 13